Wind_Speed
31 31 30 30 30 30 30 29 30 30 30 31 31 32 31 30 30 32 32 31 29 29 28 27 28 27 27 27 26 25 23 22 21 20 19 20 20 20 19 18 17 16 15
31 30 29 29 28 29 29 29 29 29 30 30 30 30 31 30 30 31 32 32 31 31 30 29 28 28 28 29 28 28 27 25 24 23 22 21 20 20 20 20 19 18 17
30 29 28 27 26 26 26 26 26 27 28 29 30 30 31 32 31 31 31 31 31 32 33 32 30 30 30 30 31 31 30 29 28 27 25 24 23 22 22 21 20 19 19
28 27 26 25 24 24 23 24 24 25 26 28 29 30 31 32 31 32 32 31 32 32 32 32 31 30 31 31 32 32 32 31 31 31 30 28 27 26 24 23 22 21 20
26 25 24 23 22 21 20 21 22 23 25 26 28 29 31 32 32 32 32 32 32 31 30 30 30 31 31 32 33 34 34 33 33 33 33 31 30 30 29 27 26 24 23
24 23 21 19 19 18 19 19 20 22 23 25 27 28 30 31 32 32 32 32 32 31 30 30 30 30 31 31 32 33 35 35 35 34 34 34 34 33 32 31 30 28 27
22 21 20 19 18 18 19 20 21 22 24 26 27 28 29 31 32 31 32 32 32 31 32 31 30 30 31 32 32 32 33 36 36 35 35 35 35 35 35 35 34 33 31
22 21 20 20 20 20 20 21 21 22 24 26 28 29 29 30 32 32 32 32 31 31 31 31 31 31 30 31 32 31 32 33 35 35 36 36 36 36 36 37 37 37 36
22 22 22 22 22 22 22 23 23 23 24 27 29 30 30 30 31 31 32 31 31 31 31 31 32 31 30 30 30 30 31 32 34 36 36 37 37 37 37 38 38 39 39
24 25 25 25 24 24 25 25 25 25 26 27 29 31 32 32 32 30 30 31 31 31 31 31 32 31 29 29 29 29 29 31 32 35 36 37 37 38 38 38 38 39 40
26 27 28 28 28 28 28 28 28 28 28 28 29 30 32 33 33 32 28 29 31 31 31 31 31 31 30 29 29 29 29 29 30 33 34 36 36 37 37 37 37 38 39
30 30 31 31 32 31 31 30 29 29 29 29 30 31 31 32 32 33 29 28 29 31 31 31 32 32 32 30 29 28 27 28 29 31 32 33 34 35 35 35 35 37 39
34 35 34 34 34 34 34 33 32 31 31 31 31 31 31 32 32 32 30 28 28 29 31 32 31 31 32 31 29 28 28 27 28 29 29 30 32 33 34 34 35 36 38
39 39 38 37 37 36 36 35 34 33 32 32 32 31 31 31 31 31 30 28 27 27 29 31 32 31 31 30 29 29 28 28 28 28 28 29 31 32 33 34 35 35 36
44 43 43 41 40 38 38 37 36 35 34 34 33 32 31 31 30 30 29 28 27 26 27 29 30 30 30 30 29 29 28 28 29 29 29 30 31 32 33 34 35 35 35
50 49 47 46 44 42 40 39 38 37 36 35 33 32 31 30 30 29 29 28 26 25 25 26 28 28 30 29 29 28 28 29 29 29 30 31 32 32 33 34 34 34 34
57 55 53 50 48 45 44 42 40 39 37 35 34 32 31 30 29 29 28 27 26 25 23 25 26 27 29 29 29 29 29 29 29 30 30 31 31 32 32 33 33 33 34
61 60 58 55 51 49 47 45 43 41 39 37 34 33 31 29 28 28 27 26 25 23 23 23 25 26 27 28 29 29 29 29 29 30 31 30 30 30 30 30 31 31 31
65 63 60 58 56 53 50 48 45 42 41 38 35 33 31 29 28 27 27 26 24 23 23 24 24 25 26 27 28 28 29 29 29 29 28 29 29 28 29 29 29 28 29
70 67 65 62 60 56 53 49 46 44 42 40 37 34 32 29 28 27 27 25 24 23 22 22 22 24 24 25 26 26 27 27 27 27 27 27 27 27 26 27 26 26 26
75 73 71 69 65 60 56 53 50 46 44 41 38 36 33 30 28 27 26 24 23 22 20 20 20 21 22 23 23 25 25 25 24 24 25 25 25 24 23 22 22 23 23
73 75 75 74 71 66 60 56 53 50 46 42 39 37 34 32 29 27 25 24 23 21 19 18 19 20 21 22 23 24 24 24 23 23 22 21 20 19 19 17 18 18 18
56 63 68 71 72 69 65 61 57 52 47 43 40 38 35 32 30 27 25 23 21 20 19 19 20 20 21 22 22 21 22 22 20 19 18 17 16 14 14 13 11 10 10
39 43 49 57 64 66 66 63 60 55 50 46 43 39 36 33 31 27 25 23 21 20 19 19 19 18 19 20 21 20 19 18 17 16 15 14 12 11 9 7 6 6 6
32 33 35 39 45 53 58 59 58 54 50 47 44 41 37 34 31 28 25 22 21 19 18 16 18 18 19 19 18 17 18 17 16 15 14 12 10 9 8 7 6 5 5
30 29 29 30 33 38 45 50 52 52 49 46 44 42 38 34 31 28 24 22 21 18 16 16 16 18 19 18 18 17 17 16 15 13 12 11 10 9 7 6 5 4 3
Wind_Direction
288 287 286 285 285 285 285 285 286 288 289 290 291 290 288 283 280 278 276 277 277 272 271 273 269 264 260 255 252 249 248 248 250 252 251 247 245 248 250 252 253 253 253
288 287 285 284 285 285 285 286 286 288 289 290 291 292 290 288 286 279 276 275 272 271 270 270 268 263 260 254 251 249 247 246 246 248 249 247 247 246 248 252 254 255 255
287 285 284 284 285 285 286 286 287 289 291 292 291 290 290 288 289 284 278 277 275 269 266 266 267 266 262 256 252 249 248 247 246 246 247 246 246 247 248 250 252 255 257
283 282 282 282 283 284 285 287 289 291 293 293 293 292 291 289 287 285 281 279 277 273 266 264 265 266 262 259 255 251 249 248 247 245 246 246 246 246 248 250 252 255 257
279 278 278 280 281 283 285 289 292 294 296 296 296 295 293 292 289 286 282 278 276 274 270 264 263 264 262 259 255 251 248 247 247 247 246 247 247 247 247 249 250 253 255
274 274 274 277 279 283 287 291 296 299 301 302 302 300 298 294 291 287 282 279 276 273 270 266 265 263 261 259 255 252 247 246 247 247 247 247 248 247 247 248 249 251 253
269 269 271 274 277 281 286 291 296 301 304 306 307 305 302 298 293 288 283 279 275 271 267 265 264 263 258 256 254 253 249 246 246 247 247 247 248 249 249 249 250 251 252
264 265 268 271 274 278 284 290 295 301 305 308 309 309 306 301 296 291 284 278 274 270 267 264 262 261 258 256 254 253 250 249 247 246 247 247 248 250 250 250 250 251 252
264 265 268 270 273 277 282 287 292 298 303 307 311 312 311 305 299 294 287 280 273 267 265 263 260 258 257 255 253 253 252 251 249 247 248 248 249 250 251 252 251 251 252
264 267 269 272 275 278 281 285 289 294 298 303 307 311 312 309 304 297 290 282 273 266 261 259 259 256 255 255 254 254 251 250 250 250 248 249 250 250 251 252 253 253 253
267 270 272 274 277 278 280 283 286 290 295 299 303 308 310 310 307 302 293 283 275 267 259 255 257 256 255 254 252 254 252 250 251 252 250 249 250 250 251 253 253 254 255
271 271 274 277 278 278 279 279 282 286 290 295 300 305 309 310 308 305 298 287 276 268 261 255 253 254 255 254 253 255 254 253 253 252 251 250 250 250 252 254 255 256 256
274 275 276 277 278 277 277 277 279 282 286 291 296 301 307 309 308 306 301 291 279 268 261 255 251 251 253 253 255 257 256 254 254 254 255 253 253 252 253 255 257 258 257
276 276 276 277 277 276 275 275 276 278 282 286 291 297 303 306 308 306 301 295 285 272 262 255 252 250 251 252 254 256 256 256 254 255 256 256 256 255 255 257 258 259 259
275 275 274 273 273 274 274 274 275 276 278 282 286 292 298 303 307 307 302 297 289 277 265 256 252 250 250 250 252 255 257 256 255 256 257 258 259 259 259 260 261 261 259
272 271 270 270 270 270 271 272 272 273 275 278 282 288 294 300 305 307 304 299 293 282 268 258 253 249 249 250 252 254 255 256 256 257 258 258 258 259 259 261 263 261 259
271 270 268 267 266 268 270 270 269 269 272 274 277 283 290 297 303 306 304 301 294 284 272 260 253 251 249 249 251 253 255 257 257 258 259 258 259 259 260 261 262 260 258
270 269 267 266 265 264 265 267 267 266 268 270 273 278 285 293 299 303 305 301 295 286 274 262 255 252 251 251 252 254 256 257 259 260 260 259 259 260 260 262 261 259 258
269 268 267 265 264 264 264 265 264 262 264 267 270 274 280 287 295 300 302 301 295 287 274 264 258 254 251 252 255 256 257 259 261 260 260 259 259 261 262 261 262 259 258
268 267 266 265 263 262 262 261 262 261 261 263 265 269 275 282 290 296 299 299 295 288 275 264 258 256 255 256 257 258 259 259 260 260 261 260 259 262 263 263 260 258 259
266 265 264 263 262 261 260 258 258 259 260 261 262 266 271 277 285 291 296 296 294 288 275 264 259 257 257 257 260 261 261 261 260 261 260 257 257 260 262 260 258 257 258
265 264 262 261 260 259 258 257 256 256 257 257 261 262 266 272 279 286 291 292 290 286 276 267 260 259 259 257 257 257 256 257 256 255 255 254 253 252 253 254 255 257 258
267 263 260 258 257 256 255 253 253 253 253 253 256 258 262 267 274 281 285 289 289 284 275 269 265 263 259 250 248 251 252 250 248 248 248 247 245 246 246 247 248 245 247
275 270 264 258 254 252 250 249 249 249 250 250 253 256 258 263 269 276 281 286 287 281 274 268 262 258 251 245 239 239 239 237 236 235 233 231 227 223 218 210 213 224 235
281 277 272 264 255 249 244 242 242 243 244 245 247 250 254 259 264 269 274 280 282 278 273 264 255 250 244 236 232 232 228 226 223 221 216 211 204 196 190 189 194 207 219
280 280 279 270 257 246 238 233 230 233 235 238 241 244 248 254 259 264 269 274 276 273 267 260 255 248 237 229 225 222 216 209 206 200 191 184 182 181 179 182 188 200 222
Height
5868 5867 5866 5865 5864 5863 5862 5862 5861 5859 5859 5857 5857 5856 5856 5856 5856 5856 5856 5857 5858 5858 5859 5861 5862 5864 5865 5867 5869 5871 5872 5874 5876 5877 5878 5880 5881 5883 5884 5885 5887 5888 5889
5861 5860 5859 5858 5858 5857 5856 5855 5854 5853 5852 5851 5850 5849 5849 5849 5848 5848 5848 5849 5851 5852 5853 5854 5856 5857 5858 5860 5862 5864 5867 5869 5871 5872 5874 5875 5877 5879 5880 5882 5883 5884 5886
5855 5854 5853 5852 5852 5851 5850 5849 5848 5847 5846 5844 5844 5843 5842 5842 5841 5841 5841 5841 5842 5844 5846 5847 5848 5850 5851 5853 5855 5858 5860 5862 5865 5867 5869 5870 5872 5874 5876 5877 5879 5880 5882
5848 5848 5847 5846 5845 5845 5844 5843 5842 5841 5840 5838 5837 5836 5835 5835 5835 5834 5834 5834 5835 5836 5837 5839 5840 5841 5843 5845 5847 5850 5853 5855 5858 5860 5863 5865 5867 5869 5871 5873 5875 5876 5878
5842 5842 5841 5840 5840 5839 5838 5837 5836 5835 5834 5832 5830 5829 5828 5827 5827 5827 5827 5826 5827 5828 5829 5830 5832 5833 5835 5837 5839 5842 5845 5848 5850 5853 5856 5858 5861 5863 5865 5867 5869 5871 5873
5837 5836 5836 5835 5835 5834 5833 5832 5831 5829 5828 5826 5824 5823 5821 5820 5819 5818 5818 5818 5819 5820 5820 5821 5823 5825 5827 5829 5831 5833 5836 5839 5842 5845 5848 5851 5854 5856 5859 5861 5863 5866 5868
5831 5831 5830 5830 5830 5829 5828 5827 5825 5824 5822 5819 5818 5816 5815 5812 5811 5810 5810 5810 5811 5812 5812 5813 5815 5817 5818 5820 5822 5825 5827 5830 5834 5837 5840 5843 5846 5849 5851 5854 5856 5859 5861
5825 5825 5825 5825 5824 5824 5823 5821 5820 5818 5816 5813 5811 5809 5808 5806 5803 5802 5801 5801 5802 5803 5803 5804 5806 5808 5809 5811 5814 5816 5819 5822 5825 5828 5831 5835 5837 5840 5843 5846 5849 5851 5854
5819 5819 5819 5819 5818 5818 5817 5815 5814 5812 5810 5807 5803 5801 5799 5798 5795 5794 5792 5792 5793 5794 5795 5796 5797 5798 5800 5803 5806 5809 5811 5814 5817 5820 5822 5825 5828 5832 5834 5837 5840 5843 5846
5813 5813 5813 5812 5812 5811 5810 5809 5807 5805 5803 5801 5798 5794 5791 5789 5787 5786 5784 5783 5783 5784 5786 5787 5789 5790 5792 5795 5797 5799 5802 5805 5808 5811 5813 5816 5819 5822 5825 5828 5831 5834 5837
5806 5806 5806 5805 5804 5804 5803 5802 5800 5798 5796 5795 5792 5789 5785 5781 5777 5776 5777 5775 5773 5774 5776 5778 5780 5782 5784 5787 5789 5791 5793 5795 5798 5802 5804 5807 5810 5814 5816 5819 5822 5825 5828
5798 5798 5798 5798 5796 5796 5795 5794 5793 5791 5790 5787 5785 5782 5779 5775 5771 5768 5767 5766 5765 5765 5766 5769 5772 5774 5776 5779 5782 5784 5785 5787 5791 5793 5796 5799 5802 5805 5808 5811 5813 5816 5818
5789 5789 5789 5789 5788 5788 5787 5786 5785 5784 5782 5780 5778 5775 5772 5768 5765 5761 5758 5757 5756 5757 5757 5759 5762 5765 5768 5771 5774 5776 5779 5781 5784 5786 5788 5791 5794 5797 5799 5802 5804 5806 5808
5780 5780 5780 5779 5779 5778 5778 5777 5777 5776 5774 5773 5771 5768 5765 5762 5758 5754 5751 5749 5748 5749 5749 5751 5753 5757 5760 5764 5767 5769 5772 5774 5776 5778 5781 5784 5786 5788 5791 5793 5795 5797 5799
5769 5769 5769 5769 5769 5768 5768 5768 5767 5767 5766 5765 5763 5761 5758 5755 5751 5748 5744 5742 5741 5741 5741 5743 5745 5748 5752 5755 5758 5761 5764 5766 5769 5771 5773 5776 5778 5780 5782 5784 5786 5788 5790
5755 5756 5757 5757 5758 5758 5758 5758 5758 5758 5757 5756 5755 5753 5751 5748 5745 5741 5738 5735 5733 5733 5734 5735 5737 5740 5744 5747 5750 5753 5756 5758 5761 5763 5765 5767 5769 5771 5773 5774 5776 5778 5780
5739 5740 5742 5743 5745 5746 5747 5747 5747 5748 5747 5747 5746 5745 5743 5741 5738 5735 5732 5729 5727 5726 5726 5728 5730 5733 5736 5739 5742 5745 5748 5750 5752 5754 5756 5758 5760 5762 5764 5766 5767 5769 5771
5721 5723 5725 5728 5730 5732 5734 5735 5736 5737 5737 5737 5737 5737 5735 5734 5731 5728 5725 5723 5721 5720 5720 5721 5723 5725 5728 5731 5734 5737 5740 5742 5744 5746 5747 5750 5752 5754 5755 5757 5759 5760 5762
5702 5704 5707 5710 5714 5717 5719 5721 5723 5725 5726 5727 5728 5728 5727 5726 5724 5721 5719 5717 5715 5714 5714 5715 5716 5718 5721 5724 5727 5729 5731 5733 5735 5737 5739 5741 5744 5745 5747 5749 5751 5752 5754
5682 5684 5688 5691 5696 5700 5704 5707 5709 5712 5714 5716 5718 5718 5718 5718 5716 5714 5712 5710 5709 5708 5708 5708 5709 5711 5714 5716 5719 5721 5723 5725 5727 5729 5731 5733 5736 5738 5739 5741 5742 5744 5746
5659 5662 5666 5670 5676 5681 5687 5691 5695 5699 5702 5705 5707 5709 5709 5709 5709 5708 5706 5704 5703 5702 5702 5703 5704 5705 5707 5710 5712 5714 5716 5718 5720 5722 5724 5726 5728 5730 5732 5733 5735 5737 5739
5634 5637 5642 5647 5654 5661 5668 5675 5680 5685 5689 5693 5696 5698 5700 5700 5700 5700 5699 5698 5697 5696 5697 5697 5698 5700 5702 5704 5705 5707 5709 5712 5713 5716 5718 5719 5722 5724 5726 5727 5729 5731 5733
5610 5613 5616 5622 5630 5639 5648 5656 5664 5670 5675 5680 5684 5688 5690 5691 5692 5692 5692 5691 5691 5691 5691 5692 5693 5694 5696 5697 5699 5702 5704 5706 5708 5710 5712 5714 5717 5719 5721 5722 5724 5725 5727
5593 5594 5595 5599 5606 5615 5625 5636 5645 5653 5661 5667 5673 5677 5680 5682 5684 5684 5684 5684 5684 5685 5686 5686 5688 5689 5691 5692 5694 5697 5699 5702 5703 5705 5708 5710 5712 5715 5717 5719 5721 5723 5725
5581 5580 5581 5582 5586 5593 5603 5614 5625 5636 5646 5654 5660 5666 5670 5673 5675 5676 5677 5678 5679 5679 5680 5681 5683 5685 5687 5688 5690 5693 5695 5698 5700 5702 5705 5707 5710 5712 5714 5717 5719 5721 5723
5571 5570 5570 5570 5572 5577 5585 5595 5608 5620 5631 5640 5648 5655 5660 5664 5667 5669 5670 5672 5673 5674 5675 5677 5678 5680 5683 5685 5687 5690 5692 5695 5697 5700 5703 5706 5709 5711 5713 5715 5717 5718 5720